Theta_e
322 321 322 323 323 323 322 314 308 307 306 312 313 309 307 306 306 307 304 304 309 309 308 307 307 308 308 309 311 310 312 312 312 312 311 312 314 313 313 313 314 313 314 312 313 318 321 322 327 332 330 328 328 330
323 322 322 322 322 323 321 309 308 307 306 311 313 309 307 306 306 306 306 305 304 308 309 307 308 308 309 310 311 311 312 312 311 311 308 311 313 313 313 315 314 315 313 313 313 318 320 319 323 324 326 329 329 328
323 323 322 322 322 321 315 309 308 307 306 309 312 309 307 307 306 305 305 305 307 308 308 307 308 308 308 308 309 311 312 311 308 305 303 307 310 311 315 315 316 314 313 316 315 321 319 320 321 324 326 326 326 326
323 323 322 323 323 320 309 308 307 307 306 309 312 308 307 306 306 306 308 306 308 308 310 309 307 308 309 309 309 309 310 309 308 306 303 307 310 308 313 313 313 313 315 317 318 319 317 319 319 321 324 324 324 323
323 322 322 322 321 313 309 308 307 306 306 310 311 307 307 307 307 307 308 308 307 308 310 309 308 308 308 309 310 310 309 309 308 308 303 307 306 306 306 309 310 309 315 318 319 314 314 317 319 321 323 324 323 324
323 322 323 322 319 312 310 308 307 306 309 312 310 307 307 307 307 308 309 308 307 307 308 311 309 309 310 311 311 311 311 310 309 310 310 308 305 304 308 312 308 310 313 313 315 314 315 317 319 321 322 323 323 322
322 322 323 322 320 314 309 307 306 309 312 312 309 307 307 307 308 309 309 308 306 305 307 310 311 310 310 311 312 312 311 312 312 312 310 311 308 308 306 309 307 309 311 313 313 315 316 316 318 320 321 323 321 321
322 323 322 322 319 314 308 307 308 313 312 311 308 307 307 307 308 308 309 309 306 307 307 311 311 310 311 313 313 312 312 312 310 311 311 310 309 309 308 307 307 307 310 312 312 313 314 315 315 316 317 320 321 321
322 322 322 320 316 309 307 306 313 312 312 309 307 307 307 307 308 309 310 308 306 308 309 310 314 313 310 312 313 313 313 313 311 310 310 309 310 309 308 309 308 308 307 311 310 311 311 312 314 314 314 316 316 317
321 321 320 314 308 307 307 310 313 312 310 309 307 308 310 309 310 310 308 307 306 307 309 311 312 314 312 312 313 313 313 314 315 313 310 310 310 309 308 307 308 308 307 308 310 310 310 311 312 313 313 313 314 312
317 320 312 307 307 307 310 312 312 310 309 308 309 310 311 310 310 309 310 310 310 311 311 312 313 314 312 313 313 313 314 314 315 313 312 310 312 309 307 306 306 308 308 307 307 306 307 308 309 311 312 312 313 312
319 312 307 307 309 313 313 313 311 311 310 310 311 311 310 310 310 312 313 312 312 316 313 314 313 312 313 313 314 314 315 315 314 312 313 312 311 308 307 306 305 304 304 305 305 305 305 305 307 308 309 310 311 311
313 308 307 307 314 314 314 312 311 312 311 312 313 312 311 312 313 314 321 316 317 315 313 313 313 313 312 313 314 315 315 315 313 313 313 312 310 309 307 306 305 304 304 303 303 302 300 300 300 302 305 308 310 311
308 308 308 310 315 315 313 311 312 312 313 314 313 311 315 317 317 319 320 319 318 318 313 313 313 313 314 315 314 315 314 314 314 316 312 310 309 310 307 306 306 306 305 304 304 304 304 304 303 303 303 304 305 307
308 309 314 316 316 315 312 311 312 312 313 314 316 319 320 318 317 317 317 318 317 317 314 312 310 309 313 313 314 314 313 316 313 313 312 309 308 309 309 307 306 307 307 307 307 305 305 304 304 304 303 304 304 304
313 317 317 315 316 315 311 311 312 312 313 313 316 319 318 317 316 315 315 316 315 313 312 309 310 312 313 313 315 314 314 315 313 311 309 308 308 308 308 308 309 308 308 308 308 308 307 306 305 304 304 303 303 303
316 319 313 310 316 313 311 311 311 312 312 316 318 318 317 314 315 315 315 316 315 313 315 311 313 313 312 315 314 313 313 312 310 309 308 307 307 307 307 306 307 307 308 307 306 305 306 307 307 306 305 304 303 303
308 307 307 315 315 310 310 312 312 313 316 317 319 318 317 315 315 314 315 316 316 316 315 313 314 314 314 315 314 312 310 309 308 306 306 306 308 305 307 308 307 306 305 304 304 304 304 304 303 304 306 306 305 304
307 306 309 314 313 312 312 313 314 316 317 314 313 313 314 312 311 312 313 312 311 310 311 311 312 312 312 312 311 309 308 306 305 305 306 308 307 306 307 307 305 304 304 303 302 301 301 302 302 302 303 304 304 304
307 312 311 313 313 313 314 316 316 316 313 311 309 309 309 309 309 309 309 309 309 309 309 310 309 308 308 307 306 305 304 305 304 305 305 304 304 304 303 302 301 301 300 300 300 298 299 300 300 301 301 300 301 301
308 312 311 311 311 311 315 317 317 317 314 311 309 310 310 308 308 308 307 308 307 307 306 306 305 305 304 303 304 304 304 304 304 304 303 302 301 301 300 300 300 299 299 299 299 299 299 300 300 300 300 300 300 301
308 315 315 313 316 314 316 316 317 317 315 311 312 311 308 306 304 304 304 307 306 306 305 305 304 304 304 302 302 303 303 302 301 301 300 300 301 300 299 299 298 298 298 298 298 299 299 299 298 299 299 299 300 301
318 318 317 317 316 316 318 317 319 318 317 316 314 311 309 307 305 305 304 305 305 306 306 306 305 304 303 302 302 303 303 302 302 301 301 300 300 299 299 298 298 298 299 298 299 299 299 299 299 299 300 300 299 299
319 319 319 320 320 317 317 319 318 317 316 315 313 312 309 308 307 305 303 304 306 305 305 306 306 303 303 303 302 302 301 301 301 301 300 300 300 299 298 298 299 299 298 298 299 299 299 299 299 299 299 300 300 300
319 317 319 316 318 318 317 317 317 317 316 315 313 311 309 308 308 306 304 303 306 306 305 305 306 305 304 302 302 301 299 301 301 301 300 299 299 299 299 299 300 299 299 299 299 299 299 299 299 299 299 299 299 299
315 319 319 320 320 320 319 318 318 317 316 315 313 311 309 307 308 308 306 304 306 306 305 306 306 304 302 301 301 301 300 300 300 300 299 299 299 299 299 299 299 299 299 298 299 299 299 299 299 299 299 299 299 299
319 320 318 316 319 319 317 315 316 316 316 315 313 311 309 308 308 308 306 305 306 306 306 306 306 305 302 301 300 300 299 299 299 299 299 299 299 299 299 299 299 298 298 299 299 299 299 299 299 299 299 299 299 299
320 317 315 312 309 309 310 309 310 311 314 313 312 311 309 308 308 306 306 306 306 306 306 305 304 301 301 300 299 298 299 299 299 299 299 299 299 299 299 299 298 297 298 298 298 299 299 299 299 299 299 299 299 299
319 315 311 309 309 309 308 309 309 310 310 311 309 309 308 308 306 306 306 306 306 306 304 301 300 300 300 299 298 298 299 300 300 300 300 300 300 299 299 299 299 299 299 299 299 298 298 298 299 299 299 299 299 299
316 312 309 309 309 309 307 307 309 309 308 308 307 306 306 306 307 307 307 307 306 306 304 301 301 301 300 299 299 299 299 299 300 300 301 300 300 300 300 300 300 300 300 300 299 299 299 299 299 299 299 299 299 299
310 308 308 308 308 307 307 307 307 307 307 307 306 307 307 307 306 307 306 305 303 303 303 301 301 301 300 299 299 299 299 299 299 300 300 300 300 300 300 300 300 300 299 299 299 299 299 299 299 299 299 299 299 298
311 309 307 308 308 307 308 307 307 307 307 307 307 306 306 306 306 304 303 303 302 302 302 301 301 301 300 299 299 299 299 300 300 300 300 300 300 300 300 300 300 299 299 299 299 299 299 299 299 299 298 298 298 298
311 309 308 308 308 308 308 308 308 307 307 308 307 307 306 307 307 306 303 302 302 301 301 301 301 301 300 299 299 299 299 300 300 299 299 299 299 299 299 300 300 299 299 299 299 299 299 299 299 298 298 298 298 298
Wind_Speed
23 27 22 25 15 12 9 9 8 11 12 6 3 0 3 4 4 3 2 3 3 0 6 6 3 4 4 1 1 3 4 3 1 4 3 4 4 3 7 10 8 11 9 9 11 12 14 14 3 7 6 5 5 7
21 20 18 19 16 10 9 8 8 9 11 6 2 3 5 5 4 3 0 1 2 1 2 6 6 8 6 2 1 2 6 3 1 2 1 3 3 3 8 4 12 10 12 7 9 8 7 7 8 3 1 4 6 7
18 16 15 17 13 10 9 7 7 8 10 5 4 6 7 5 5 3 3 3 1 1 4 5 7 7 6 8 6 5 2 1 3 6 2 1 5 1 3 9 6 14 9 7 6 6 6 5 6 3 4 7 9 9
18 13 11 8 12 13 7 7 8 9 9 5 6 8 8 8 8 6 2 3 2 1 4 5 6 5 6 7 8 11 10 6 2 4 4 2 3 3 2 4 2 5 7 9 6 5 4 5 6 6 5 8 10 9
19 14 10 9 8 7 7 7 9 10 11 5 9 11 11 10 8 4 1 3 2 1 3 2 4 7 6 6 6 7 7 7 3 4 3 3 2 3 2 3 1 7 0 3 3 4 3 4 6 6 6 9 9 9
17 11 12 10 12 10 6 7 9 12 8 10 11 12 12 10 6 1 2 3 2 2 2 2 1 5 6 5 6 4 4 5 4 2 1 2 4 2 1 2 8 9 1 1 1 7 2 2 6 8 9 9 10 10
17 14 14 9 14 9 6 7 10 9 7 11 12 12 12 10 6 2 1 2 1 3 1 3 4 6 4 4 6 3 4 1 4 3 3 1 3 2 2 2 17 11 8 6 3 8 3 11 7 8 8 9 12 12
11 12 9 9 12 9 7 7 8 5 9 12 12 12 11 9 4 3 4 2 2 1 1 3 2 5 2 5 6 3 5 5 4 3 2 4 5 4 3 12 16 15 13 12 7 10 8 9 10 10 9 10 13 14
10 11 9 10 11 7 6 6 4 9 11 14 14 11 8 5 3 2 2 3 4 2 2 1 2 2 1 3 3 4 4 1 2 5 6 3 4 4 6 12 14 13 11 6 3 10 10 10 10 12 11 11 12 11
12 7 11 10 7 5 5 3 9 12 17 16 14 4 4 3 4 4 3 2 2 2 3 4 3 1 3 2 3 2 1 1 1 4 3 3 2 8 11 12 12 9 6 6 6 11 9 9 10 11 13 12 5 7
10 11 10 6 3 5 4 11 14 20 19 11 4 4 6 6 5 3 3 3 4 3 5 4 4 2 1 3 1 1 0 0 2 2 1 2 3 9 10 13 12 12 14 9 5 6 8 9 8 9 9 9 8 9
13 10 6 1 2 3 10 13 18 18 7 7 6 8 6 3 2 3 2 3 3 1 6 3 3 4 2 1 3 2 1 2 2 1 1 2 5 9 9 13 14 15 14 15 18 16 14 14 14 14 13 11 11 12
11 7 3 1 5 7 11 18 19 13 12 9 2 3 3 3 3 4 4 2 2 4 7 5 4 3 4 4 2 2 1 2 2 2 2 2 9 10 10 11 12 14 15 17 18 19 20 21 21 19 16 14 14 14
7 3 1 2 5 8 14 22 19 15 5 3 4 2 3 4 5 4 4 3 4 6 11 8 5 1 3 1 1 2 2 1 2 1 2 4 5 7 10 9 9 10 12 14 16 16 18 21 21 20 20 20 18 17
3 1 5 7 6 10 18 19 17 12 3 3 3 3 6 4 3 2 2 2 4 5 11 8 5 2 2 2 1 3 3 2 1 2 4 9 6 5 9 8 6 6 7 8 10 12 15 16 18 19 19 20 19 19
6 7 6 4 7 13 20 17 14 8 2 3 4 5 2 2 4 5 4 6 4 11 10 6 2 2 2 1 3 3 3 2 3 8 11 11 7 5 3 3 5 5 5 5 7 7 9 10 11 13 14 15 15 15
5 3 2 3 8 16 17 14 9 4 4 4 6 9 3 2 3 5 3 5 7 11 2 4 4 3 4 2 2 3 2 8 13 13 11 9 5 5 3 3 3 1 3 7 8 8 7 6 5 5 7 9 10 11
2 1 2 5 13 21 15 8 4 4 6 8 5 4 4 4 4 5 4 4 2 1 1 3 2 1 3 3 3 8 15 15 13 12 9 7 4 3 3 6 9 7 8 9 8 7 8 8 7 6 3 3 4 6
1 1 5 11 16 8 6 4 4 3 6 11 11 11 11 13 13 10 7 6 6 5 2 3 4 4 4 9 16 14 13 12 12 11 11 10 10 12 11 13 11 10 8 7 6 6 7 6 5 5 5 4 5 6
2 2 10 11 7 1 2 3 2 1 3 5 10 16 11 10 11 14 12 10 7 5 8 4 6 10 14 13 13 14 12 10 12 13 14 13 11 11 11 7 5 4 4 5 5 7 5 4 4 5 5 6 7 8
1 6 12 7 2 1 4 4 2 3 6 7 14 12 8 15 10 9 11 10 11 7 7 9 11 11 11 13 13 11 11 9 9 11 11 10 8 7 6 5 5 4 4 5 4 5 6 5 5 5 6 7 8 8
2 7 6 6 4 2 1 3 2 3 5 9 4 7 7 5 7 10 9 11 5 7 9 11 10 10 12 13 12 11 12 13 12 11 9 6 5 5 6 6 6 5 5 5 5 5 5 5 6 6 7 7 6 6
9 4 3 2 2 3 3 2 1 3 2 4 5 5 5 4 3 5 5 4 4 5 9 11 11 12 12 11 11 10 9 7 6 5 4 4 4 4 4 4 6 5 4 5 7 7 6 8 6 7 7 7 6 6
6 3 1 1 2 1 2 2 3 3 4 5 4 5 4 4 4 5 3 2 3 7 7 9 8 9 7 6 6 7 5 4 3 2 3 2 2 3 3 4 5 6 5 5 6 7 7 7 7 7 8 8 8 9
1 3 2 1 2 1 2 2 3 3 4 6 5 4 3 2 3 3 2 4 6 7 8 3 4 4 2 4 3 3 2 3 4 3 2 4 3 3 2 4 5 4 4 6 7 7 6 7 8 9 11 11 12 13
3 5 5 5 4 3 4 2 3 4 6 4 4 4 3 3 2 3 5 11 8 11 9 3 3 3 3 2 3 3 3 3 3 2 2 3 3 5 6 7 6 5 7 6 6 7 8 8 8 9 10 10 10 11
3 4 5 5 3 2 4 4 4 5 5 3 3 3 2 2 3 3 8 13 11 11 6 2 2 1 2 3 3 4 3 2 3 4 3 3 4 4 4 5 5 5 4 6 6 7 8 8 9 9 10 11 11 11
4 4 4 5 6 8 3 3 3 3 3 2 0 2 2 2 3 9 11 12 10 7 5 3 6 5 3 2 2 2 6 7 7 6 7 8 8 7 6 6 6 8 5 6 5 7 7 7 9 10 11 11 11 11
4 4 4 7 4 5 6 5 4 3 2 2 2 3 4 5 11 13 11 11 10 8 7 9 8 6 3 2 4 6 7 6 6 8 7 7 7 7 7 7 7 7 6 5 7 7 9 9 10 10 10 9 9 9
3 3 4 5 4 4 5 4 4 3 3 4 7 11 13 12 10 10 9 8 8 8 9 10 9 7 4 4 6 7 6 7 7 5 4 4 5 5 6 7 8 8 8 8 8 9 11 13 12 11 12 12 12 13
5 4 5 5 4 5 6 8 9 9 9 10 10 11 12 9 8 8 9 9 8 9 11 12 11 9 6 8 9 9 8 6 5 3 2 2 5 8 9 10 9 10 10 10 10 9 9 10 12 12 13 13 13 12
3 3 6 4 4 5 4 4 2 5 6 6 6 7 7 7 7 9 13 12 10 11 12 13 13 10 8 9 10 10 9 7 5 2 3 5 7 8 9 9 8 8 9 9 8 7 6 9 11 12 12 13 12 13
9 9 10 9 6 5 5 4 3 3 4 5 6 9 9 7 7 9 16 16 11 12 14 14 12 10 11 11 11 11 11 7 5 2 3 6 8 8 10 8 8 8 8 9 8 7 8 8 9 11 12 14 14 13
Wind_Direction
266 284 287 301 289 298 265 266 294 315 327 315 297 283 165 163 150 117 145 121 108 21 156 185 182 163 150 195 345 116 206 198 193 207 201 225 250 263 269 260 181 206 210 202 232 229 242 4 211 255 46 62 41 29
263 282 291 301 289 272 246 268 292 313 325 307 251 184 175 169 162 128 191 128 151 186 115 190 205 213 207 164 338 220 332 332 108 233 266 314 255 258 280 262 197 233 226 242 214 209 33 357 360 34 34 66 56 48
262 270 287 299 271 234 233 251 284 305 322 302 216 190 181 170 156 121 108 95 59 203 184 202 218 216 209 225 229 295 35 84 187 192 195 267 252 189 249 241 273 217 229 253 172 149 62 24 18 0 67 75 71 61
259 250 286 258 274 223 235 262 284 301 315 280 198 183 174 155 133 111 92 49 78 240 270 150 189 195 216 224 247 248 271 295 256 228 188 232 254 2 306 324 247 305 242 214 199 135 337 57 20 344 72 73 69 61
248 241 238 243 214 198 226 262 285 302 307 225 188 178 170 160 142 124 44 10 12 86 321 109 207 217 212 228 255 257 252 244 235 191 172 227 232 248 240 267 79 298 327 229 179 110 308 34 27 31 64 61 52 56
228 232 216 231 211 212 236 270 293 304 294 179 179 175 174 172 154 106 39 326 324 16 306 217 127 172 199 235 239 230 210 200 219 259 21 202 232 274 251 162 338 339 6 182 147 138 226 238 53 49 56 60 51 52
211 212 222 222 211 212 248 281 302 305 173 172 170 167 174 174 163 192 89 195 36 66 337 239 179 176 217 202 192 187 184 265 247 112 9 102 344 35 32 12 325 2 1 55 164 192 105 48 58 59 54 55 54 53
194 183 199 218 198 214 257 287 307 175 164 161 154 161 173 181 199 250 254 233 128 33 39 284 174 190 210 210 181 189 211 196 41 79 102 28 0 31 42 1 4 15 11 57 71 103 91 69 65 57 56 71 53 39
179 193 204 193 181 220 261 298 186 159 151 143 143 150 153 184 202 216 174 172 182 164 289 238 271 92 189 205 227 197 248 255 138 80 79 42 28 30 310 2 15 20 16 327 13 64 66 70 64 58 50 58 35 15
140 158 166 167 196 233 273 257 162 150 140 142 141 139 167 177 179 149 136 132 175 223 227 242 229 205 271 189 162 246 192 351 147 72 178 105 89 58 42 44 29 30 45 32 40 35 26 46 53 53 59 57 34 20
150 160 159 177 218 272 249 169 158 146 144 144 159 162 162 161 156 164 175 211 173 218 210 231 248 275 167 260 104 312 22 69 116 68 325 70 82 66 47 49 45 42 54 64 91 85 66 64 62 64 55 60 63 48
154 153 153 158 307 159 157 161 153 147 154 163 157 133 143 178 192 226 182 173 217 263 176 201 214 217 141 213 245 174 186 218 113 145 134 97 105 99 78 70 67 66 59 52 58 65 72 75 72 72 62 46 42 50
148 140 126 82 141 144 159 156 156 146 137 137 133 148 159 176 215 209 189 197 220 203 186 174 177 191 174 218 204 208 93 76 116 79 85 58 116 132 112 95 83 74 71 74 74 69 68 71 72 72 74 69 62 52
134 143 166 146 154 160 163 161 155 149 148 179 167 172 220 195 241 213 230 227 176 145 157 153 151 110 20 270 337 100 60 98 91 160 152 147 139 137 132 124 106 85 76 73 71 70 68 67 64 60 57 58 61 61
131 116 125 139 153 163 166 165 159 172 187 220 215 240 212 272 324 360 42 131 77 128 145 115 82 114 196 141 225 128 147 111 173 154 109 132 149 147 142 146 134 106 83 72 61 57 54 54 56 58 58 60 61 58
120 121 120 129 159 167 167 161 172 194 226 226 235 258 224 258 105 87 63 85 94 136 114 93 117 196 112 159 177 136 123 148 133 98 113 128 140 148 132 160 166 150 109 76 54 49 48 45 47 49 51 54 53 56
128 138 173 175 167 166 161 164 186 228 223 222 230 225 251 34 70 90 92 69 129 151 140 147 170 168 152 191 90 47 61 107 110 112 103 104 120 139 160 219 225 106 61 59 61 60 50 36 32 33 32 36 41 43
111 137 123 152 157 157 166 186 228 234 238 235 237 194 197 94 81 65 66 108 101 57 160 56 115 135 54 49 78 110 96 88 92 95 97 97 83 121 134 111 103 109 80 64 52 41 34 26 20 5 339 345 357 17
345 310 141 134 140 150 195 229 229 280 26 16 28 81 64 69 58 66 54 65 68 55 58 47 52 49 73 79 103 108 99 102 102 96 90 80 86 93 88 87 86 78 69 51 29 0 350 357 355 1 5 352 337 334
359 139 155 148 147 135 250 259 255 114 63 78 73 62 75 66 64 62 51 40 45 56 47 46 44 52 76 73 77 83 87 98 111 108 103 94 88 87 87 82 69 46 11 357 348 359 342 336 341 339 337 332 325 315
184 155 163 159 82 354 355 327 71 63 97 81 110 87 83 74 57 40 29 42 56 38 74 67 74 82 86 89 84 83 81 89 93 114 116 103 94 84 69 38 12 4 2 14 14 32 34 30 18 2 351 349 346 339
176 137 136 146 109 171 318 356 80 93 88 130 101 67 66 56 33 23 35 59 69 69 80 72 80 87 88 86 80 87 94 96 98 101 98 93 73 44 20 18 20 36 50 45 32 20 21 9 356 355 349 344 352 5
121 102 84 87 122 203 134 119 112 122 117 107 119 88 65 72 63 57 71 40 67 91 100 74 79 101 100 96 87 85 93 94 99 94 77 58 55 34 35 39 31 18 6 23 9 4 354 351 349 358 357 354 346 334
105 85 29 220 228 115 114 101 74 82 81 83 63 88 62 72 92 78 69 37 125 137 133 71 86 121 113 104 92 76 71 71 79 79 34 4 7 45 12 4 353 348 339 337 344 348 352 355 357 348 344 344 343 339
5 40 334 306 28 80 89 79 81 97 88 93 94 98 104 138 93 90 121 188 166 161 158 83 87 103 60 105 104 71 62 358 353 357 342 338 332 303 319 347 345 348 343 327 326 329 334 328 327 328 323 320 322 318
67 34 16 19 38 28 21 51 53 49 91 76 74 116 125 121 89 85 158 188 177 160 162 151 112 107 98 48 18 26 6 345 327 326 2 347 341 333 337 339 349 352 346 342 333 329 324 321 320 323 322 322 325 323
64 67 48 36 33 65 97 68 49 53 39 61 113 120 130 91 85 93 139 162 161 169 189 220 223 162 111 88 42 2 355 36 109 109 85 39 7 7 12 5 360 338 349 350 349 349 345 341 343 344 339 335 331 325
66 42 69 45 67 41 67 49 39 43 76 35 146 65 71 68 114 150 157 171 166 172 181 189 151 148 129 71 7 82 113 113 103 92 77 66 60 53 53 42 26 31 40 23 36 27 15 5 354 350 348 351 352 351
76 78 84 60 69 58 42 32 38 51 57 350 95 97 108 111 138 148 157 168 175 180 177 166 164 153 129 70 104 130 134 123 112 107 97 88 78 57 49 41 34 26 23 7 346 12 2 356 353 351 351 342 345 348
86 59 96 56 57 54 36 32 66 91 88 94 108 115 119 129 144 154 164 176 190 195 192 186 181 174 167 151 145 138 138 143 137 118 93 67 46 18 4 353 346 342 334 330 330 326 328 337 339 338 331 326 320 320
110 98 86 76 88 93 89 89 95 100 104 112 127 135 142 151 171 186 186 188 190 188 185 187 187 187 183 173 167 161 152 156 158 133 100 19 349 339 331 324 325 327 325 321 320 316 322 335 337 336 334 334 338 337
95 112 126 113 126 145 120 142 126 132 140 145 153 164 169 187 196 201 199 191 189 189 192 187 187 190 186 183 181 181 171 169 167 167 326 339 341 341 346 341 331 331 334 336 330 323 316 330 340 344 346 346 341 338
115 114 110 114 138 174 178 182 188 177 208 224 226 215 214 224 236 211 205 196 192 191 189 185 185 191 185 173 171 173 173 178 197 219 346 351 343 338 342 348 342 345 347 349 348 340 332 330 336 343 347 349 347 343